Tracking 30995 objects as of 7-Jul-2025
HD Live streaming from Space Station
objects crossing your sky now

LAGEOS 2 AKM (MAGE 1S)

Track LAGEOS 2 AKM (MAGE 1S) now!
10-day predictions


NORAD ID: 22197
Int'l Code: 1992-070E
Perigee: 5,622.8 km
Apogee: 5,956.4 km
Inclination: 52.6 °
Period: 222.4 minutes
Semi major axis: 12160 km
RCS: 3.8238 m2 (large)
Launch date: October 22, 1992
Source: Italy (IT)
Launch site: AIR FORCE EASTERN TEST RANGE (AFETR)

Note: This is a ROCKET BODY
Your satellite tracking list
Your tracking list is empty




NASA's NSSDC Master Catalog

Two Line Element Set (TLE):
1 22197U 92070E   25187.81103956 -.00000009  00000-0  00000+0 0  9994
2 22197  52.6425 121.4381 0137169  39.7158 321.3357  6.47399083773401
Source of the keplerian elements: AFSPC